STARLINK-3903 (52462 NORAD) Tracking and Keplerian Element Data

This shows tracking and keplerian element data for the satellite.

Feedback or suggestion? Click here.




ElementValue
Catalog52462
NameSTARLINK-3903
Epoch Orbit130
Epoch Day192.91667824
Epoch Year2022
RAAN300.6974
Inclination53.2171
Eccentricity0.0001631
Argument of Perigee40.0418
Mean Anonmoly270.9404
Mean Motion15.26988117
Decay Rate-0.01069117
L11 52462U 22049M 22192.91667824 -.01069117 00000+0 -43471-1 0 9991
L22 52462 53.2171 300.6974 0001631 40.0418 270.9404 15.26988117 1305

Live tracking and technical data element details for STARLINK-3903 (NORAD 52462). STARLINK-3903 can be tracked NOW for your location showing map with azimuth and elevation plus other details from your city location.

Track the satellite on the map from your city or location and see movement details for azimuth, elevation, latitude, longitude, range, height, and movement on the map or in text.







IsCatalogInMostPopularTable: catalog: 52462, numindb: 5
Update: records affected: 1



GetName: 52462 STARLINK-3903

Hit Count: updated at: Sun, 14 Aug 2022 01:39:05 GMT